www.pogodaiklimat.ru
ПОГОДА в Аплтоне
Время
и дата
05:45 30.11
06:45 30.11
07:45 30.11
08:45 30.11
09:45 30.11
10:45 30.11
11:45 30.11
12:45 30.11
13:45 30.11
14:45 30.11
15:45 30.11
16:45 30.11
17:45 30.12
18:45 30.11
19:45 30.11
20:45 30.11
21:45 30.11
22:45 30.11
22:55 30.11
23:15 30.11
23:35 30.11
23:55 30.11
00:15 01.12
00:35 01.12
00:55 01.12
01:15 01.12
01:35 01.12
01:55 01.12
02:15 01.12
02:35 01.12
02:55 01.12
03:15 01.12
03:35 01.12
03:55 01.12
04:15 01.12
04:35 01.12
04:55 01.12
05:15 01.12
05:20 01.12
05:45 01.12
06:45 01.12
07:45 01.12
08:45 01.12
09:45 01.12
10:45 01.12
11:45 01.12
12:45 01.12
13:45 01.12
Ветер
(напр.,м/с)
Видим. Явления Облачность Т
(С)
Тd
(С)
f
(%)
Тe
(С)
Тes
(С)
Комфортность P
(гПа)
Po
(гПа)
Тmin
(С)
Tmax
(С)
R
(мм)
R24
(мм)
S
(см)
С 3
{5}
16 км 10/10 1050 м -3.0 -13.0 46 -10 -10 984.1
С 3
{4}
16 км 10/10 870 м -3.0 -12.0 50 -10 -10 984.5
С 4
{6}
16 км 10/10 900 м -4.0 -13.0 50 -13 -13 984.8
С 4
{4}
16 км слабый снег 10/10 750 м -4.0 -12.0 54 -12 -12 985.1
С 3
{4}
16 км 10/10 720 м -4.0 -12.0 54 -12 -12 985.1
С 4
{4}
16 км 10/10 720 м -3.0 -12.0 50 -11 -11 984.5
С 4
{5}
16 км 10/10 720 м -3.0 -12.0 50 -11 -11 984.1
С 4
{5}
16 км 10/10 810 м -3.0 -12.0 50 -11 -11 983.5
С 3
{4}
16 км 10/10 810 м -3.0 -12.0 50 -10 -10 983.2
С 3
{4}
16 км 10/10 870 м -3.0 -13.0 46 -10 -10 983.2
С 3
{4}
16 км 10/10 930 м -3.0 -13.0 46 -10 -10 983.8
С 3
{4}
16 км 8/8 930 м -3.0 -13.0 46 -10 -10 983.8
С 3 16 км 10/10 930 м -3.0 -13.0 46 -10 -10 983.8
С 3 16 км 10/10 930 м -3.0 -13.0 46 -10 -10 983.8
С 2 16 км 10/10 930 м -3.0 -13.0 46 -9 -9 983.5
С 2 16 км 10/10 810 м -4.0 -13.0 50 -10 -10 983.5
С 3 16 км 10/10 810 м -4.0 -13.0 50 -11 -11 983.2
С 2 16 км 10/10 750 м -4.0 -13.0 50 -10 -10 983.2
С 2 16 км 10/10 750 м -4.0 -12.0 54 -10 -10 983.2
С 2 16 км 10/10 750 м -4.0 -13.0 50 -10 -10 983.2
С 2 16 км 10/10 750 м -4.0 -12.0 54 -10 -10 983.2
С 3
{4}
16 км 10/10 750 м -4.0 -12.0 54 -11 -11 983.2
С 3 16 км 10/10 750 м -4.0 -12.0 54 -11 -11 982.8
С 3 16 км 10/10 750 м -4.0 -12.0 54 -11 -11 982.8
С 2 16 км 10/10 750 м -4.0 -12.0 54 -10 -10 982.8
С 2 16 км 10/10 750 м -4.0 -12.0 54 -10 -10 982.8
С 2 16 км 10/10 690 м -4.0 -12.0 54 -10 -10 982.8
С 3
{4}
16 км 10/10 690 м -4.0 -12.0 54 -11 -11 982.8
С 2 16 км 10/10 690 м -5.0 -12.0 58 -11 -11 983.2
С 2 16 км 10/10 690 м -5.0 -12.0 58 -11 -11 982.8
С 1 16 км 8/8 690 м -5.0 -12.0 58 -9 -9 982.5
СЗ 1 16 км 5/5 690 м -6.0 -12.0 62 -11 -11 982.8
СЗ 1 16 км 5/5 690 м -7.0 -12.0 67 -12 -12 982.5
СЗ 1 16 км 8/8 690 м -8.0 -12.0 73 -14 -14 982.5
З 2 16 км 5/5 690 м -8.0 -12.0 73 -15 -15 982.5
З 2 16 км 8/8 630 м -7.0 -12.0 67 -13 -13 982.5
З 2 16 км 10/10 630 м -7.0 -12.0 67 -13 -13 982.5
СЗ 2 16 км 10/10 630 м -7.0 -12.0 67 -13 -13 982.8
З 2 16 км 10/10 630 м -8.0 -12.0 73 -15 -15 982.8
СЗ 2 16 км 8/8 570 м -8.0 -13.0 67 -15 -15 983.2
СЗ 2 16 км 5/5 570 м -9.0 -13.0 73 -16 -16 983.5
СЗ 2 16 км 5/5 570 м -8.0 -12.0 73 -15 -15 983.8
СЗ 2 16 км 5/5 570 м -5.0 -11.0 63 -11 -11 984.1
СЗ 2 16 км 2/2 600 м -3.0 -11.0 54 -8 -8 984.5
С 2 16 км 2/2 900 м -2.0 -11.0 50 -7 -6 984.5
С 2 16 км ясно -1.0 -11.0 47 -7 -5 984.1
СЗ 2 16 км ясно 0.0 -12.0 40 -5 -2 983.8
СЗ 2 16 км ясно +1.0 -12.0 37 -3 -1 983.8
Местоположение метеостанции Outagamie County Regional Airport: широта 44.2500 долгота -88.5200 высота над уровнем моря 280 м.
В архиве по умолчанию представлена погода в Аплтоне за последние 1-2 суток. Обновление информации о фактической погоде в базе происходит ежечасно! Архивные данные за месяц целиком и за предыдущие месяцы Вы можете получить, выбрав интересующий диапазон дат из раскрывающегося списка и нажав кнопку "Ввод!".
Внимание! Архив погоды МЕТАР в базе сайта по станциям, не включенным в климатический монитор, хранится не более 60 дней. Нет смысла пытаться выбрать более раннюю дату.
*Определитесь, кто Вы:
Внимание! Время в таблицах - местное (без учета летнего времени). Для получения всемирного времени необходимо вычесть поправку, которая равна -6 ч.
Смотрите также архив погоды в соседних городах и на ближайших метеорологических станциях:
Партнеры нашего сайта:      
Пояснения к столбцам:
  • Ветер - указаны скорость ветра в м/с - средняя за 10 мин, порывы в срок и между сроками (в фигурных скобках) и направление, откуда дует ветер: С - северный,
  • СВ - северо-восточный, В - восточный, ЮВ - юго-восточный, Ю - южный, ЮЗ - юго-западный, З - западный, СЗ - северо-западный.
  • Видимость - горизонтальная дальность видимости в метрах или километрах. При видимости от 1 до 10 км при отсутствии осадков обычно наблюдается дымка, при ухудшении видимости до 1 км и менее - туман. В сухую погоду видимость может ухудшаться дымом, пылью или мглою.
  • Явления - указаны атмосферные явления, наблюдавшиеся в срок или в последний час перед сроком; фигурными скобками обозначены явления, наблюдавшиеся между сроками (за 1-3 часа до срока); квадратными скобками обозначены град или гололедные отложения с указанием их диаметра в мм.
  • Облачность - указаны через наклонную черту общая и нижняя облачность в баллах и высота нижней границы облаков в метрах; квадратными скобками обозначены формы облаков: Ci - перистые, Cs - перисто-слоистые, Cc - перисто-кучевые, Ac - высококучевые, As - высокослоистые, Sc - слоисто-кучевые, Ns - слоисто-дождевые, Cu - кучевые, Cb - кучево-дождевые. Подробнее классификацию облаков см. в Атласе облаков (PDF).
  • T - Температура воздуха - температура, измеренная на высоте 2 м над землей.
  • Td - Температура точки росы - температура, при понижении до которой содержащийся в воздухе водяной пар достигнет насыщения.
  • f - Относительная влажность воздуха - влажноcть воздуха, измеренная на высоте 2 м над землей.
  • Te - Эффективная температура - температура, которую ощущает одетый по сезону человек в тени. Характеристика душности погоды. При расчете учитывается влияние влажности воздуха и скорости ветра на теплоощущения человека.
  • Tes - Эффективная температура на солнце - температура, которую ощущает человек, с поправкой на солнечный нагрев. Характеристика знойности погоды. Зависит от высоты солнца над горизонтом, облачности и скорости ветра. Ночью, в пасмурную погоду, а также при ветре 12 м/с и более поправка равна нулю.
  • P - Атмосферное давление - приведенное к уровню моря атмосферное давление.
  • Po - Атмосферное давление - измеренное на уровне метеостанции атмосферное давление.
  • Tmin - Минимальная температура - минимум температуры воздуха на высоте 2 м над землей.
  • Tmax - Максимальная температура - максимум температуры воздуха на высоте 2 м над землей.
  • R - Количество осадков - Количество выпавших осадков за период времени, мм. При наведении курсора мыши на число - период времени, за который выпало указанное количество осадков.
  • R24 - Количество осадков - Количество выпавших осадков за 24 часа, мм.
  • S - Снежный покров - Высота снежного покрова, см. При наведении курсора мыши на число - состояние снежного покрова и степень покрытия местности в баллах.